Tracking 20626 objects as of 8-Apr-2020
HD Live streaming from Space Station
objects crossing your sky now

CZ-4C DEB

Track CZ-4C DEB now!
10-day predictions


NORAD ID: 39015
Int'l Code: 2012-066E
Perigee: 912.2 km
Apogee: 1,289.7 km
Inclination: 63.4 °
Period: 107.1 minutes
Semi major axis: 7471 km
RCS: 6.3394 m2 (large)
Launch date: November 25, 2012
Source: People's Republic of China (PRC)
Launch site: Jiuquan Satellite Launch Center, China (JSC)

Note: This is SATELLITE DEBRIS
aabbcc
Your satellite tracking list
Your tracking list is empty




NASA's NSSDC Master Catalog

Two Line Element Set (TLE):
1 39015U 12066E   20099.45551074 -.00000034  00000-0  80287-4 0  9991
2 39015  63.3769  10.0587 0252597  13.0662 347.6748 13.44155691361719
Source of the keplerian elements: AFSPC